Weather in Lozovaya

Russia / Lipetsk Oblast     52°18′57″N   38°46′23″E
temp.,
°C
wind,
m/s
gust,
m/s
humid.,
%
clouds,
%
prec.,
mm/h
press.,
hPa
HPBL,
m
11 may, tue
tue1100:00+8ne71889100 0.0 1019658
03:00+8nne81890100 0.0 1018501
06:00+9nne81890100 0.0 1018589
09:00+12ne7148692 0.0 1018817
12:00+9e61192100 0.9 1021692
15:00+14e710553 1.1 10211596
18:00+12ese712665 0.0 10231338
21:00+8ese6137882 0.0 1025724
12 may, wed
wed1200:00+6e379324 0.0 1026160
03:00+5ene379150 0.0 1025133
06:00+7ene41087100 0.0 1025284
09:00+10ene6976100 0.0 1023663
12:00+11ene4580100 0.9 1021617
15:00+12e447096 1.3 10191089
18:00+12e6107355 0.0 1018640
21:00+11e6157899 0.1 1018625
13 may, thu
thu1300:00+10ese5119096 0.2 1018358
03:00+8ese3696100 0.2 1019124
06:00+9ese3590100 0.0 1019114
09:00+15se236613 0.0 1018484
12:00+18se2355100 0.0 10171340
15:00+20sse455145 0.1 10161808
18:00+18sse36675 0.3 1016438
21:00+14ese34805 0.4 101761
14 may, fri
fri1400:00+13ese489483 0.0 1016135
03:00+12ese4995100 0.0 1017162
06:00+13e4109327 0.0 1017277
09:00+19ese61076100 0.1 1015572
12:00+23se7961100 0.0 10141273
15:00+25sse7105847 0.0 10131803
18:00+24sse496971 0.1 1012425
21:00+19se388267 0.4 1012128
15 may, sat
sat1500:00+18se3692100 0.0 1012111
03:00+16sse11925 0.4 101111
06:00+16ese3492100 0.5 1011104
09:00+18se3588100 2.9 1010354
12:00+23s79632 0.8 10101418
15:00+24ssw68545 0.8 10101546
18:00+22ssw4869100 0.6 1010384
21:00+17ssw4987100 1.2 1010179